KLM861 EHAM-CYVR

Flight info

Callsign KLM861
Flight time 9h 19m
Altitude 36000
Route ANDIK Z733 KONOM DCT SUTEB DCT KARLI DCT ALLOY DCT IPTON/M084F360 DCT 65N020W 65N030W 66N040W 67N050W DCT EPMAN/N0488F360 DCT YZS DCT YMM DCT YZU DCT NADPI DCT MERYT DCT BOOTH VITEV5
Aircraft B772/H-SDE2E3FGHIJ5LORVWXY/LB1D1

Departure

Time 2026-04-30 09:52
Airport Amsterdam Airport Schiphol (EHAM)

Arrival

Time 2026-04-30 19:11
Airport Vancouver International Airport (CYVR)
Time Latitude Longitude Altitude Speed Heading
2026-04-30 08:53 52.31219 4.76864 3 ft 0 kts 303°
2026-04-30 08:56 52.31366 4.76173 4 ft 0 kts 177°
2026-04-30 09:39 52.31382 4.76172 4 ft 4 kts 179°
2026-04-30 09:39 52.31409 4.76172 5 ft 4 kts 179°
2026-04-30 09:39 52.31434 4.76169 5 ft 4 kts 163°
2026-04-30 09:39 52.31453 4.76149 6 ft 4 kts 104°
2026-04-30 09:40 52.31453 4.76107 4 ft 4 kts 80°
2026-04-30 09:40 52.31450 4.76083 5 ft 0 kts 86°
2026-04-30 09:42 52.31451 4.76108 4 ft 5 kts 88°
2026-04-30 09:42 52.31454 4.76195 6 ft 11 kts 87°
2026-04-30 09:43 52.31458 4.76337 3 ft 15 kts 87°
2026-04-30 09:43 52.31465 4.76524 3 ft 19 kts 86°
2026-04-30 09:43 52.31472 4.76736 3 ft 18 kts 87°
2026-04-30 09:43 52.31479 4.76959 3 ft 21 kts 86°
2026-04-30 09:44 52.31506 4.77176 3 ft 18 kts 44°
2026-04-30 09:44 52.31589 4.77332 3 ft 20 kts 60°
2026-04-30 09:44 52.31669 4.77532 3 ft 20 kts 57°
2026-04-30 09:44 52.31774 4.77687 2 ft 22 kts 13°
2026-04-30 09:45 52.31921 4.77705 3 ft 21 kts
2026-04-30 09:45 52.32010 4.77738 3 ft 9 kts 32°
2026-04-30 09:45 52.32016 4.77745 3 ft 0 kts 35°
2026-04-30 09:46 52.32028 4.77761 3 ft 7 kts 37°
2026-04-30 09:46 52.32068 4.77816 3 ft 8 kts 42°
2026-04-30 09:46 52.32083 4.77837 3 ft 0 kts 42°
2026-04-30 09:48 52.32097 4.77858 3 ft 7 kts 42°
2026-04-30 09:48 52.32118 4.77932 3 ft 7 kts 80°
2026-04-30 09:48 52.32100 4.78002 3 ft 7 kts 151°
2026-04-30 09:48 52.32061 4.78009 3 ft 0 kts 182°
2026-04-30 09:51 52.32060 4.78009 3 ft 1 kts 182°
2026-04-30 09:51 52.31935 4.77999 3 ft 41 kts 183°
2026-04-30 09:51 52.31399 4.77951 4 ft 112 kts 183°
2026-04-30 09:52 52.30411 4.77857 7 ft 171 kts 182°
2026-04-30 09:52 52.29138 4.77737 419 ft 188 kts 178°
2026-04-30 09:52 52.27827 4.77666 1241 ft 191 kts 176°
2026-04-30 09:52 52.26526 4.77938 1847 ft 189 kts 148°
2026-04-30 09:53 52.25670 4.79528 2118 ft 200 kts 105°
2026-04-30 09:53 52.25627 4.81853 2425 ft 214 kts 92°
2026-04-30 09:53 52.25601 4.84318 2920 ft 221 kts 95°
2026-04-30 09:53 52.25539 4.86869 3465 ft 229 kts 95°
2026-04-30 09:54 52.25480 4.89483 4063 ft 232 kts 95°
2026-04-30 09:54 52.25423 4.92133 4684 ft 235 kts 95°
2026-04-30 09:54 52.25366 4.94831 5232 ft 240 kts 94°
2026-04-30 09:54 52.25610 4.97539 5637 ft 251 kts 70°
2026-04-30 09:55 52.26625 4.99919 6155 ft 262 kts 49°
2026-04-30 09:55 52.28031 5.01866 6416 ft 269 kts 44°
2026-04-30 09:55 52.29462 5.03780 6408 ft 269 kts 45°
2026-04-30 09:55 52.30894 5.05715 6402 ft 265 kts 45°
2026-04-30 09:56 52.32311 5.07643 6556 ft 265 kts 45°
2026-04-30 09:56 52.33809 5.09413 6991 ft 272 kts 29°
2026-04-30 09:56 52.35650 5.10319 7338 ft 280 kts 19°
2026-04-30 09:56 52.37553 5.11090 7835 ft 282 kts 20°
2026-04-30 09:57 52.39452 5.11895 8449 ft 281 kts 20°
2026-04-30 09:57 52.41347 5.12710 8992 ft 283 kts 20°
2026-04-30 09:57 52.43250 5.13535 9545 ft 284 kts 21°
2026-04-30 09:57 52.45167 5.14371 10055 ft 286 kts 21°
2026-04-30 09:58 52.47093 5.15214 10538 ft 287 kts 21°
2026-04-30 09:58 52.49038 5.16073 10727 ft 301 kts 21°
2026-04-30 09:58 52.51104 5.16991 10847 ft 316 kts 20°
2026-04-30 09:58 52.53287 5.17960 10983 ft 333 kts 20°
2026-04-30 09:59 52.58002 5.20050 11406 ft 366 kts 19°
2026-04-30 09:59 52.63020 5.22264 12600 ft 379 kts 19°
2026-04-30 10:00 52.68109 5.24517 14104 ft 385 kts 19°
2026-04-30 10:00 52.70707 5.25675 14725 ft 389 kts 19°
2026-04-30 10:01 52.76010 5.27838 15977 ft 398 kts 13°
2026-04-30 10:01 52.78772 5.28446 16583 ft 402 kts 11°
2026-04-30 10:01 52.81555 5.29010 17173 ft 405 kts 11°
2026-04-30 10:02 52.87186 5.30304 18318 ft 411 kts 12°
2026-04-30 10:02 52.90031 5.31011 18850 ft 414 kts 13°
2026-04-30 10:02 52.92851 5.31718 19347 ft 417 kts 12°
2026-04-30 10:02 52.95727 5.32440 19840 ft 419 kts 12°
2026-04-30 10:03 52.98616 5.33164 20311 ft 422 kts 12°
2026-04-30 10:03 53.01531 5.33893 20776 ft 425 kts 12°
2026-04-30 10:03 53.04466 5.34626 21231 ft 427 kts 12°
2026-04-30 10:03 53.07410 5.35360 21691 ft 430 kts 12°
2026-04-30 10:04 53.10378 5.36102 22129 ft 433 kts 12°
2026-04-30 10:04 53.13371 5.36851 22569 ft 435 kts 11°
2026-04-30 10:04 53.16373 5.37603 23017 ft 438 kts 11°
2026-04-30 10:04 53.19351 5.38349 23446 ft 440 kts 11°
2026-04-30 10:05 53.22392 5.39113 23873 ft 443 kts 11°
2026-04-30 10:05 53.25455 5.39884 24249 ft 446 kts 11°
2026-04-30 10:05 53.28529 5.40658 24608 ft 448 kts 11°
2026-04-30 10:05 53.31621 5.41438 24979 ft 450 kts 11°
2026-04-30 10:06 53.34726 5.42223 25350 ft 452 kts 11°
2026-04-30 10:06 53.37837 5.43011 25706 ft 454 kts 11°
2026-04-30 10:06 53.40974 5.43805 26055 ft 456 kts 11°
2026-04-30 10:06 53.44117 5.44603 26407 ft 459 kts 11°
2026-04-30 10:07 53.47279 5.45408 26744 ft 461 kts 11°
2026-04-30 10:07 53.50415 5.46206 27066 ft 463 kts 11°
2026-04-30 10:07 53.53608 5.47020 27401 ft 465 kts 11°
2026-04-30 10:07 53.56821 5.47841 27729 ft 467 kts 11°
2026-04-30 10:08 53.60042 5.48665 28053 ft 469 kts 10°
2026-04-30 10:08 53.63286 5.49356 28367 ft 472 kts
2026-04-30 10:08 53.66578 5.49503 28691 ft 475 kts
2026-04-30 10:08 53.69886 5.49302 28986 ft 477 kts 359°
2026-04-30 10:09 53.73209 5.49073 29267 ft 479 kts 359°
2026-04-30 10:09 53.76545 5.48845 29533 ft 481 kts 359°
2026-04-30 10:09 53.79892 5.48630 29802 ft 482 kts 359°
2026-04-30 10:09 53.83198 5.48430 30054 ft 484 kts 359°
2026-04-30 10:10 53.86568 5.48238 30284 ft 485 kts 359°
2026-04-30 10:10 53.89948 5.48052 30594 ft 485 kts 360°
2026-04-30 10:10 53.93314 5.47869 30906 ft 483 kts 359°
2026-04-30 10:10 53.96675 5.47687 31192 ft 483 kts 359°
2026-04-30 10:11 54.00014 5.47506 31544 ft 480 kts 359°
2026-04-30 10:11 54.03353 5.47324 31848 ft 479 kts 359°
2026-04-30 10:11 54.06693 5.47141 32151 ft 478 kts 360°
2026-04-30 10:11 54.10007 5.46959 32473 ft 477 kts 360°
2026-04-30 10:12 54.13269 5.46780 32748 ft 476 kts 359°
2026-04-30 10:12 54.16565 5.46598 33195 ft 472 kts 359°
2026-04-30 10:12 54.19839 5.46417 33523 ft 471 kts 359°
2026-04-30 10:12 54.23117 5.46236 33750 ft 471 kts 359°
2026-04-30 10:13 54.26399 5.46054 34039 ft 470 kts 359°
2026-04-30 10:13 54.29667 5.45873 34267 ft 471 kts 359°
2026-04-30 10:13 54.32930 5.45692 34630 ft 467 kts 359°
2026-04-30 10:13 54.36178 5.45511 34911 ft 466 kts 359°
2026-04-30 10:14 54.39371 5.45334 35083 ft 467 kts 358°
2026-04-30 10:14 54.42616 5.45153 35326 ft 466 kts 358°
2026-04-30 10:14 54.49091 5.44790 35802 ft 465 kts 358°
2026-04-30 10:15 54.52320 5.44609 36012 ft 464 kts 358°
2026-04-30 10:15 54.55547 5.44428 36181 ft 465 kts 359°
2026-04-30 10:15 54.58779 5.44246 36363 ft 465 kts 359°
2026-04-30 10:15 54.62021 5.44063 36434 ft 467 kts 359°
2026-04-30 10:16 54.68500 5.43698 36513 ft 471 kts 358°
2026-04-30 10:17 54.78401 5.43136 36519 ft 477 kts 358°
2026-04-30 10:17 54.88359 5.42568 36506 ft 477 kts 358°
2026-04-30 10:18 54.94989 5.42188 36508 ft 475 kts 358°
2026-04-30 10:19 55.04870 5.41944 36509 ft 476 kts
2026-04-30 10:19 55.11510 5.42280 36519 ft 478 kts
2026-04-30 10:20 55.18177 5.42640 36516 ft 481 kts
2026-04-30 10:20 55.28223 5.43096 36520 ft 485 kts
2026-04-30 10:21 55.34995 5.43381 36517 ft 487 kts
2026-04-30 10:21 55.41785 5.43667 36516 ft 489 kts
2026-04-30 10:22 55.48592 5.43956 36517 ft 490 kts
2026-04-30 10:22 55.55360 5.44247 36518 ft 490 kts
2026-04-30 10:23 55.62170 5.44540 36521 ft 489 kts
2026-04-30 10:23 55.68967 5.44834 36519 ft 489 kts
2026-04-30 10:24 55.75765 5.45128 36520 ft 488 kts
2026-04-30 10:24 55.82510 5.45421 36520 ft 488 kts
2026-04-30 10:25 55.89293 5.45717 36520 ft 487 kts
2026-04-30 10:25 55.96070 5.46014 36520 ft 487 kts
2026-04-30 10:26 56.02842 5.46312 36523 ft 487 kts
2026-04-30 10:26 56.09610 5.46610 36523 ft 486 kts
2026-04-30 10:27 56.16323 5.46907 36523 ft 486 kts
2026-04-30 10:27 56.23088 5.47208 36527 ft 486 kts
2026-04-30 10:28 56.29856 5.47509 36522 ft 486 kts
2026-04-30 10:28 56.36624 5.47812 36523 ft 486 kts
2026-04-30 10:29 56.43347 5.48114 36523 ft 486 kts
2026-04-30 10:29 56.50108 5.48418 36526 ft 486 kts
2026-04-30 10:30 56.56876 5.48724 36525 ft 486 kts
2026-04-30 10:30 56.63643 5.49031 36526 ft 486 kts
2026-04-30 10:31 56.70364 5.49337 36523 ft 486 kts
2026-04-30 10:31 56.77129 5.49646 36524 ft 486 kts
2026-04-30 10:32 56.83892 5.49957 36523 ft 486 kts
2026-04-30 10:32 56.90652 5.50268 36523 ft 486 kts
2026-04-30 10:33 56.97403 5.50263 36515 ft 485 kts 353°
2026-04-30 10:33 57.03950 5.47826 36525 ft 483 kts 341°
2026-04-30 10:34 57.10203 5.43310 36525 ft 483 kts 337°
2026-04-30 10:34 57.16400 5.38542 36518 ft 483 kts 337°
2026-04-30 10:35 57.22611 5.33796 36524 ft 483 kts 337°
2026-04-30 10:35 57.28781 5.29121 36518 ft 483 kts 337°
2026-04-30 10:36 57.35008 5.24408 36519 ft 483 kts 337°
2026-04-30 10:36 57.41230 5.19682 36518 ft 483 kts 337°
2026-04-30 10:37 57.47449 5.14940 36518 ft 483 kts 337°
2026-04-30 10:37 57.53624 5.10211 36517 ft 483 kts 337°
2026-04-30 10:38 57.59838 5.05435 36520 ft 483 kts 337°
2026-04-30 10:38 57.66052 5.00641 36515 ft 483 kts 337°
2026-04-30 10:39 57.72256 4.95837 36512 ft 483 kts 337°
2026-04-30 10:39 57.78421 4.91046 36513 ft 483 kts 337°
2026-04-30 10:40 57.84622 4.86208 36511 ft 482 kts 336°
2026-04-30 10:40 57.90816 4.81358 36514 ft 483 kts 336°
2026-04-30 10:41 57.97018 4.76484 36507 ft 483 kts 336°
2026-04-30 10:41 58.03224 4.71588 36507 ft 483 kts 336°
2026-04-30 10:42 58.09389 4.66706 36507 ft 484 kts 336°
2026-04-30 10:42 58.15596 4.61771 36511 ft 484 kts 336°
2026-04-30 10:43 58.21805 4.56817 36506 ft 484 kts 336°
2026-04-30 10:43 58.28011 4.51846 36507 ft 484 kts 336°
2026-04-30 10:44 58.34171 4.46894 36507 ft 484 kts 336°
2026-04-30 10:44 58.40376 4.41886 36513 ft 484 kts 336°
2026-04-30 10:45 58.46580 4.36859 36506 ft 484 kts 336°
2026-04-30 10:45 58.52788 4.31811 36502 ft 485 kts 336°
2026-04-30 10:46 58.58957 4.26774 36505 ft 485 kts 336°
2026-04-30 10:46 58.65162 4.21688 36499 ft 486 kts 336°
2026-04-30 10:47 58.71382 4.16570 36499 ft 486 kts 335°
2026-04-30 10:47 58.77588 4.11443 36496 ft 486 kts 335°
2026-04-30 10:48 58.83769 4.06318 36496 ft 486 kts 335°
2026-04-30 10:48 58.89981 4.01147 36496 ft 486 kts 335°
2026-04-30 10:49 58.96195 3.95953 36496 ft 486 kts 335°
2026-04-30 10:49 59.02410 3.90739 36491 ft 487 kts 335°
2026-04-30 10:50 59.08589 3.85533 36499 ft 488 kts 335°
2026-04-30 10:50 59.14824 3.80261 36487 ft 489 kts 335°
2026-04-30 10:51 59.21077 3.74951 36491 ft 491 kts 335°
2026-04-30 10:51 59.27346 3.69607 36501 ft 492 kts 334°
2026-04-30 10:52 59.33623 3.64234 36487 ft 493 kts 334°
2026-04-30 10:52 59.39873 3.58862 36483 ft 494 kts 334°
2026-04-30 10:53 59.46177 3.53423 36483 ft 495 kts 334°
2026-04-30 10:53 59.52470 3.47970 36482 ft 495 kts 334°
2026-04-30 10:54 59.58768 3.42492 36484 ft 495 kts 334°
2026-04-30 10:54 59.65023 3.37028 36479 ft 495 kts 334°
2026-04-30 10:55 59.71315 3.31508 36475 ft 495 kts 334°
2026-04-30 10:55 59.77605 3.25968 36475 ft 495 kts 334°
2026-04-30 10:56 59.83896 3.20404 36470 ft 495 kts 334°
2026-04-30 10:56 59.90162 3.14838 36463 ft 496 kts 333°
2026-04-30 10:57 59.96460 3.09222 36474 ft 497 kts 333°
2026-04-30 10:57 60.02774 3.03567 36471 ft 497 kts 333°
2026-04-30 10:58 60.09091 2.97885 36470 ft 498 kts 333°
2026-04-30 10:58 60.15410 2.92179 36457 ft 498 kts 333°
2026-04-30 10:59 60.21688 2.86485 36454 ft 498 kts 333°
2026-04-30 10:59 60.28007 2.80729 36452 ft 498 kts 333°
2026-04-30 11:00 60.34324 2.74953 36450 ft 498 kts 333°
2026-04-30 11:00 60.40595 2.69191 36446 ft 498 kts 333°
2026-04-30 11:01 60.46915 2.63361 36453 ft 500 kts 332°
2026-04-30 11:01 60.53239 2.57499 36445 ft 501 kts 332°
2026-04-30 11:02 60.59582 2.51597 36440 ft 501 kts 332°
2026-04-30 11:02 60.65880 2.45711 36433 ft 502 kts 332°
2026-04-30 11:03 60.72225 2.39756 36435 ft 502 kts 332°
2026-04-30 11:04 60.81745 2.30771 36426 ft 503 kts 332°
2026-04-30 11:04 60.88087 2.24752 36423 ft 503 kts 332°
2026-04-30 11:05 60.94391 2.18744 36415 ft 503 kts 332°
2026-04-30 11:05 61.00733 2.12673 36410 ft 503 kts 332°
2026-04-30 11:06 61.07073 2.06576 36433 ft 503 kts 331°
2026-04-30 11:06 61.13423 2.00441 36408 ft 504 kts 331°
2026-04-30 11:07 61.19737 1.94314 36404 ft 505 kts 330°
2026-04-30 11:07 61.26098 1.88116 36381 ft 505 kts 330°
2026-04-30 11:08 61.32394 1.81691 36385 ft 502 kts 324°
2026-04-30 11:08 61.37792 1.72759 36383 ft 492 kts 310°
2026-04-30 11:09 61.42051 1.61855 36378 ft 487 kts 303°
2026-04-30 11:09 61.46143 1.50566 36377 ft 487 kts 303°
2026-04-30 11:10 61.50257 1.39292 36383 ft 488 kts 302°
2026-04-30 11:10 61.54395 1.28004 36373 ft 489 kts 302°
2026-04-30 11:11 61.58507 1.16761 36364 ft 489 kts 302°
2026-04-30 11:11 61.62638 1.05407 36357 ft 489 kts 302°
2026-04-30 11:12 61.66758 0.94020 36356 ft 489 kts 302°
2026-04-30 11:12 61.70868 0.82605 36342 ft 489 kts 302°
2026-04-30 11:13 61.74939 0.71239 36342 ft 489 kts 302°
2026-04-30 11:13 61.79025 0.59774 36349 ft 489 kts 301°
2026-04-30 11:14 61.83109 0.48259 36334 ft 489 kts 301°
2026-04-30 11:14 61.87183 0.36713 36334 ft 489 kts 301°
2026-04-30 11:15 61.91219 0.25216 36331 ft 489 kts 301°
2026-04-30 11:15 61.95276 0.13609 36326 ft 489 kts 301°
2026-04-30 11:16 61.99307 0.01952 36320 ft 488 kts 299°
2026-04-30 11:16 62.02647 -0.10453 36325 ft 481 kts 291°
2026-04-30 11:17 62.05658 -0.23179 36310 ft 481 kts 290°
2026-04-30 11:17 62.08644 -0.35822 36311 ft 481 kts 291°
2026-04-30 11:18 62.11668 -0.48564 36310 ft 481 kts 291°
2026-04-30 11:18 62.16199 -0.67702 36303 ft 481 kts 290°
2026-04-30 11:19 62.19185 -0.80402 36296 ft 481 kts 290°
2026-04-30 11:19 62.22177 -0.93210 36288 ft 480 kts 290°
2026-04-30 11:20 62.25156 -1.06043 36298 ft 481 kts 290°
2026-04-30 11:20 62.28120 -1.18884 36283 ft 480 kts 290°
2026-04-30 11:21 62.31053 -1.31666 36279 ft 480 kts 290°
2026-04-30 11:21 62.33990 -1.44547 36280 ft 479 kts 290°
2026-04-30 11:22 62.36914 -1.57448 36271 ft 479 kts 289°
2026-04-30 11:22 62.39825 -1.70363 36269 ft 479 kts 289°
2026-04-30 11:23 62.42702 -1.83212 36264 ft 479 kts 289°
2026-04-30 11:24 62.47023 -2.02650 36263 ft 478 kts 289°
2026-04-30 11:24 62.49883 -2.15618 36260 ft 478 kts 289°
2026-04-30 11:25 62.54142 -2.35075 36259 ft 479 kts 288°
2026-04-30 11:26 62.59808 -2.61238 36250 ft 479 kts 288°
2026-04-30 11:26 62.62620 -2.74348 36239 ft 479 kts 288°
2026-04-30 11:27 62.65398 -2.87375 36237 ft 478 kts 288°
2026-04-30 11:27 62.68183 -3.00524 36254 ft 479 kts 288°
2026-04-30 11:28 62.72343 -3.20313 36220 ft 479 kts 287°
2026-04-30 11:29 62.75100 -3.33532 36227 ft 479 kts 287°
2026-04-30 11:29 62.79193 -3.53316 36240 ft 479 kts 287°
2026-04-30 11:30 62.83276 -3.73242 36250 ft 478 kts 287°
2026-04-30 11:31 62.85980 -3.86548 36223 ft 479 kts 287°
2026-04-30 11:31 62.88655 -3.99794 36206 ft 478 kts 287°
2026-04-30 11:32 62.91333 -4.13143 36207 ft 478 kts 286°
2026-04-30 11:32 62.93994 -4.26491 36198 ft 477 kts 286°
2026-04-30 11:33 62.97944 -4.46472 36196 ft 477 kts 286°
2026-04-30 11:33 63.00574 -4.59886 36186 ft 477 kts 286°
2026-04-30 11:34 63.03191 -4.73321 36179 ft 477 kts 286°
2026-04-30 11:34 63.05793 -4.86773 36187 ft 477 kts 285°
2026-04-30 11:35 63.08380 -5.00235 36176 ft 477 kts 285°
2026-04-30 11:35 63.10939 -5.13637 36162 ft 477 kts 285°
2026-04-30 11:36 63.13500 -5.27140 36164 ft 476 kts 285°
2026-04-30 11:36 63.16047 -5.40667 36158 ft 476 kts 285°
2026-04-30 11:37 63.18581 -5.54212 36147 ft 476 kts 285°
2026-04-30 11:37 63.21100 -5.67772 36146 ft 476 kts 284°
2026-04-30 11:38 63.23585 -5.81242 36139 ft 475 kts 284°
2026-04-30 11:38 63.26075 -5.94833 36128 ft 475 kts 284°
2026-04-30 11:39 63.28552 -6.08441 36156 ft 475 kts 284°
2026-04-30 11:39 63.30999 -6.21986 36157 ft 475 kts 284°
2026-04-30 11:40 63.33451 -6.35652 36125 ft 475 kts 284°
2026-04-30 11:40 63.35885 -6.49306 36099 ft 474 kts 284°
2026-04-30 11:41 63.38301 -6.62956 36106 ft 473 kts 284°
2026-04-30 11:41 63.40683 -6.76513 36106 ft 472 kts 283°
2026-04-30 11:42 63.43064 -6.90164 36142 ft 471 kts 283°
2026-04-30 11:42 63.45432 -7.03845 36097 ft 472 kts 283°
2026-04-30 11:43 63.47788 -7.17551 36084 ft 473 kts 283°
2026-04-30 11:43 63.49742 -7.28989 36085 ft 473 kts 283°
2026-04-30 11:44 63.52460 -7.45014 36077 ft 474 kts 283°
2026-04-30 11:44 63.54787 -7.58844 36103 ft 474 kts 283°
2026-04-30 11:45 63.57104 -7.72718 36085 ft 475 kts 283°
2026-04-30 11:45 63.59398 -7.86561 36062 ft 476 kts 283°
2026-04-30 11:46 63.61699 -8.00540 36056 ft 477 kts 283°
2026-04-30 11:46 63.63601 -8.12174 36046 ft 477 kts 283°
2026-04-30 11:47 63.65876 -8.26194 36047 ft 477 kts 283°
2026-04-30 11:47 63.68139 -8.40240 36035 ft 477 kts 283°
2026-04-30 11:48 63.70384 -8.54290 36038 ft 477 kts 283°
2026-04-30 11:48 63.72616 -8.68362 36038 ft 476 kts 283°
2026-04-30 11:49 63.74820 -8.82362 36024 ft 476 kts 282°
2026-04-30 11:49 63.77024 -8.96477 36026 ft 476 kts 282°
2026-04-30 11:50 63.79213 -9.10611 36025 ft 476 kts 282°
2026-04-30 11:50 63.81386 -9.24737 36015 ft 475 kts 282°
2026-04-30 11:51 63.83542 -9.38873 36040 ft 474 kts 282°
2026-04-30 11:51 63.85671 -9.52936 36007 ft 474 kts 281°
2026-04-30 11:52 63.87790 -9.67056 36005 ft 473 kts 281°
2026-04-30 11:52 63.89893 -9.81179 36010 ft 472 kts 281°
2026-04-30 11:53 63.91978 -9.95295 36000 ft 471 kts 281°
2026-04-30 11:53 63.94034 -10.09330 36000 ft 471 kts 281°
2026-04-30 11:54 63.96090 -10.23475 36036 ft 471 kts 280°
2026-04-30 11:54 63.98133 -10.37647 36010 ft 471 kts 280°
2026-04-30 11:55 64.00161 -10.51832 35998 ft 472 kts 280°
2026-04-30 11:55 64.02179 -10.66065 35989 ft 471 kts 279°
2026-04-30 11:56 64.04166 -10.80192 35991 ft 470 kts 279°
2026-04-30 11:56 64.06150 -10.94418 35989 ft 470 kts 279°
2026-04-30 11:57 64.08116 -11.08634 36031 ft 470 kts 279°
2026-04-30 11:57 64.10072 -11.22904 35989 ft 470 kts 279°
2026-04-30 11:58 64.12002 -11.37113 36006 ft 471 kts 279°
2026-04-30 11:58 64.13939 -11.51489 35971 ft 472 kts 278°
2026-04-30 11:59 64.15860 -11.65855 35972 ft 471 kts 278°
2026-04-30 11:59 64.17762 -11.80211 35971 ft 470 kts 278°
2026-04-30 12:00 64.19644 -11.94551 36020 ft 470 kts 278°
2026-04-30 12:00 64.21502 -12.08837 35991 ft 470 kts 278°
2026-04-30 12:01 64.23361 -12.23260 35965 ft 471 kts 278°
2026-04-30 12:01 64.25206 -12.37692 35961 ft 470 kts 277°
2026-04-30 12:02 64.27031 -12.52104 35956 ft 469 kts 277°
2026-04-30 12:02 64.28843 -12.66538 35961 ft 469 kts 277°
2026-04-30 12:03 64.31519 -12.88115 35966 ft 469 kts 277°
2026-04-30 12:04 64.33295 -13.02604 35964 ft 470 kts 277°
2026-04-30 12:04 64.35058 -13.17117 35955 ft 470 kts 277°
2026-04-30 12:05 64.36808 -13.31653 35964 ft 470 kts 277°
2026-04-30 12:05 64.38532 -13.46124 35954 ft 472 kts 277°
2026-04-30 12:06 64.40262 -13.60781 35945 ft 472 kts 277°
2026-04-30 12:06 64.41976 -13.75439 35957 ft 473 kts 277°
2026-04-30 12:07 64.43681 -13.90162 35939 ft 474 kts 277°
2026-04-30 12:07 64.45362 -14.04824 35930 ft 474 kts 277°
2026-04-30 12:08 64.47040 -14.19614 35928 ft 475 kts 277°
2026-04-30 12:08 64.48705 -14.34431 35923 ft 475 kts 277°
2026-04-30 12:09 64.50356 -14.49269 35926 ft 475 kts 277°
2026-04-30 12:09 64.51979 -14.64027 35928 ft 475 kts 277°
2026-04-30 12:10 64.53600 -14.78892 35921 ft 475 kts 277°
2026-04-30 12:10 64.55205 -14.93783 35979 ft 475 kts 277°
2026-04-30 12:11 64.56799 -15.08757 35937 ft 478 kts 277°
2026-04-30 12:11 64.58388 -15.23808 35908 ft 479 kts 277°
2026-04-30 12:12 64.59954 -15.38788 35913 ft 479 kts 277°
2026-04-30 12:12 64.61512 -15.53879 35932 ft 479 kts 277°
2026-04-30 12:13 64.63052 -15.68960 35917 ft 478 kts 277°
2026-04-30 12:13 64.64576 -15.84039 35913 ft 477 kts 277°
2026-04-30 12:14 64.66079 -15.99092 35912 ft 476 kts 277°
2026-04-30 12:14 64.67554 -16.14030 35913 ft 475 kts 277°
2026-04-30 12:15 64.69021 -16.29062 35909 ft 474 kts 276°
2026-04-30 12:15 64.70470 -16.44096 35960 ft 474 kts 277°
2026-04-30 12:16 64.71907 -16.59174 35911 ft 475 kts 277°
2026-04-30 12:16 64.73323 -16.74188 35897 ft 476 kts 277°
2026-04-30 12:17 64.75432 -16.96882 35901 ft 476 kts 277°
2026-04-30 12:17 64.76818 -17.12042 35892 ft 476 kts 276°
2026-04-30 12:18 64.78190 -17.27216 35888 ft 476 kts 276°
2026-04-30 12:18 64.79536 -17.42301 35893 ft 475 kts 276°
2026-04-30 12:19 64.80876 -17.57503 35897 ft 476 kts 276°
2026-04-30 12:19 64.82201 -17.72726 35885 ft 476 kts 276°
2026-04-30 12:20 64.83509 -17.87955 35886 ft 476 kts 276°
2026-04-30 12:20 64.84795 -18.03099 35933 ft 476 kts 276°
2026-04-30 12:21 64.86074 -18.18373 35897 ft 476 kts 276°
2026-04-30 12:21 64.87335 -18.33656 35877 ft 476 kts 276°
2026-04-30 12:22 64.88584 -18.48970 35881 ft 477 kts 276°
2026-04-30 12:22 64.89819 -18.64321 35887 ft 477 kts 276°
2026-04-30 12:23 64.91029 -18.79583 35886 ft 478 kts 276°
2026-04-30 12:23 64.92235 -18.94997 35880 ft 479 kts 276°
2026-04-30 12:24 64.93426 -19.10445 35875 ft 479 kts 276°
2026-04-30 12:24 64.94602 -19.25928 35885 ft 480 kts 276°
2026-04-30 12:25 64.95758 -19.41331 35872 ft 480 kts 276°
2026-04-30 12:25 64.96903 -19.56843 35902 ft 479 kts 276°
2026-04-30 12:26 64.98032 -19.72367 35858 ft 480 kts 276°
2026-04-30 12:26 64.99147 -19.87893 35851 ft 479 kts 276°
2026-04-30 12:27 65.00159 -20.03439 35854 ft 477 kts 272°
2026-04-30 12:27 65.00661 -20.18916 35862 ft 475 kts 271°
2026-04-30 12:28 65.01126 -20.34506 35848 ft 475 kts 271°
2026-04-30 12:28 65.01589 -20.50073 35845 ft 474 kts 271°
2026-04-30 12:29 65.02047 -20.65633 35847 ft 474 kts 271°
2026-04-30 12:29 65.02489 -20.81080 35850 ft 473 kts 271°
2026-04-30 12:30 65.02917 -20.96602 35853 ft 473 kts 271°
2026-04-30 12:30 65.03328 -21.12152 35844 ft 473 kts 271°
2026-04-30 12:31 65.03722 -21.27654 35842 ft 472 kts 271°
2026-04-30 12:31 65.04098 -21.43064 35875 ft 472 kts 271°
2026-04-30 12:32 65.04461 -21.58582 35849 ft 472 kts 271°
2026-04-30 12:32 65.04807 -21.74101 35839 ft 472 kts 270°
2026-04-30 12:33 65.05135 -21.89615 35824 ft 471 kts 271°
2026-04-30 12:33 65.05446 -22.05000 35830 ft 471 kts 270°
2026-04-30 12:34 65.05744 -22.20477 35827 ft 470 kts 270°
2026-04-30 12:34 65.06025 -22.35948 35828 ft 470 kts 270°
2026-04-30 12:35 65.06289 -22.51405 35827 ft 470 kts 270°
2026-04-30 12:35 65.06538 -22.66873 35816 ft 469 kts 270°
2026-04-30 12:36 65.06769 -22.82237 35816 ft 469 kts 270°
2026-04-30 12:36 65.06985 -22.97674 35816 ft 469 kts 270°
2026-04-30 12:37 65.07186 -23.13119 35819 ft 469 kts 270°
2026-04-30 12:37 65.07371 -23.28556 35819 ft 468 kts 270°
2026-04-30 12:38 65.07538 -23.43896 35819 ft 469 kts 270°
2026-04-30 12:38 65.07691 -23.59374 35805 ft 470 kts 270°
2026-04-30 12:39 65.07828 -23.74863 35800 ft 470 kts 270°
2026-04-30 12:39 65.07950 -23.90328 35800 ft 470 kts 270°
2026-04-30 12:40 65.08055 -24.05824 35801 ft 469 kts 270°
2026-04-30 12:40 65.08144 -24.21282 35791 ft 469 kts 269°
2026-04-30 12:41 65.08217 -24.36651 35791 ft 469 kts 269°
2026-04-30 12:41 65.08275 -24.52121 35784 ft 469 kts 269°
2026-04-30 12:42 65.08315 -24.67586 35781 ft 468 kts 269°
2026-04-30 12:42 65.08341 -24.82920 35787 ft 468 kts 269°
2026-04-30 12:43 65.08351 -24.98325 35771 ft 467 kts 269°
2026-04-30 12:43 65.08345 -25.13744 35772 ft 467 kts 269°
2026-04-30 12:44 65.08323 -25.29120 35773 ft 466 kts 269°
2026-04-30 12:44 65.08285 -25.44526 35777 ft 467 kts 269°
2026-04-30 12:45 65.08231 -25.59926 35772 ft 467 kts 269°
2026-04-30 12:45 65.08162 -25.75226 35765 ft 467 kts 269°
2026-04-30 12:46 65.08077 -25.90615 35756 ft 467 kts 269°
2026-04-30 12:46 65.07977 -26.05995 35766 ft 466 kts 269°
2026-04-30 12:47 65.07860 -26.21366 35767 ft 466 kts 268°
2026-04-30 12:47 65.07729 -26.36628 35765 ft 466 kts 268°
2026-04-30 12:48 65.07581 -26.51985 35765 ft 466 kts 268°
2026-04-30 12:48 65.07417 -26.67327 35758 ft 466 kts 268°
2026-04-30 12:49 65.07238 -26.82680 35751 ft 466 kts 268°
2026-04-30 12:49 65.07044 -26.97936 35760 ft 466 kts 268°
2026-04-30 12:50 65.06834 -27.13280 35758 ft 466 kts 268°
2026-04-30 12:50 65.06608 -27.28634 35779 ft 467 kts 268°
2026-04-30 12:51 65.06365 -27.44006 35765 ft 466 kts 268°
2026-04-30 12:51 65.06107 -27.59343 35758 ft 466 kts 268°
2026-04-30 12:52 65.05834 -27.74693 35760 ft 466 kts 268°
2026-04-30 12:52 65.05547 -27.89894 35759 ft 465 kts 267°
2026-04-30 12:53 65.05243 -28.05197 35761 ft 465 kts 267°
2026-04-30 12:53 65.04923 -28.20496 35760 ft 465 kts 267°
2026-04-30 12:54 65.04591 -28.35648 35751 ft 463 kts 267°
2026-04-30 12:54 65.04242 -28.50867 35761 ft 463 kts 267°
2026-04-30 12:55 65.03878 -28.66071 35761 ft 462 kts 267°
2026-04-30 12:55 65.03499 -28.81247 35766 ft 461 kts 267°
2026-04-30 12:56 65.03105 -28.96397 35765 ft 461 kts 266°
2026-04-30 12:56 65.02699 -29.11410 35765 ft 461 kts 266°
2026-04-30 12:57 65.02276 -29.26525 35764 ft 460 kts 266°
2026-04-30 12:57 65.01838 -29.41615 35768 ft 459 kts 266°
2026-04-30 12:58 65.01385 -29.56682 35769 ft 459 kts 266°
2026-04-30 12:58 65.00923 -29.71630 35772 ft 459 kts 266°
2026-04-30 12:59 65.00450 -29.86650 35775 ft 458 kts 268°
2026-04-30 12:59 65.00800 -30.01677 35778 ft 458 kts 277°
2026-04-30 13:00 65.02131 -30.16371 35767 ft 458 kts 286°
2026-04-30 13:00 65.04092 -30.30696 35777 ft 457 kts 287°
2026-04-30 13:01 65.06057 -30.44908 35777 ft 457 kts 286°
2026-04-30 13:01 65.07997 -30.59231 35814 ft 457 kts 286°
2026-04-30 13:02 65.09913 -30.73639 35786 ft 458 kts 285°
2026-04-30 13:02 65.11811 -30.88091 35788 ft 459 kts 285°
2026-04-30 13:03 65.13686 -31.02482 35773 ft 459 kts 285°
2026-04-30 13:03 65.15560 -31.16992 35770 ft 460 kts 285°
2026-04-30 13:04 65.17421 -31.31531 35769 ft 459 kts 285°
2026-04-30 13:04 65.19265 -31.46060 35771 ft 458 kts 285°
2026-04-30 13:05 65.21077 -31.60469 35780 ft 457 kts 285°
2026-04-30 13:06 65.23785 -31.82253 35786 ft 457 kts 285°
2026-04-30 13:06 65.25576 -31.96819 35784 ft 457 kts 284°
2026-04-30 13:07 65.27340 -32.11308 35786 ft 458 kts 284°
2026-04-30 13:07 65.29102 -32.25905 35781 ft 458 kts 284°
2026-04-30 13:08 65.30853 -32.40555 35780 ft 458 kts 284°
2026-04-30 13:08 65.32588 -32.55208 35780 ft 457 kts 284°
2026-04-30 13:09 65.34306 -32.69856 35791 ft 457 kts 284°
2026-04-30 13:09 65.35999 -32.84431 35789 ft 458 kts 284°
2026-04-30 13:10 65.37691 -32.99142 35786 ft 458 kts 284°
2026-04-30 13:10 65.39370 -33.13877 35832 ft 459 kts 284°
2026-04-30 13:10 65.40208 -33.21290 35938 ft 459 kts 284°
2026-04-30 13:11 65.41041 -33.28688 36091 ft 459 kts 283°
2026-04-30 13:11 65.41858 -33.35987 36198 ft 459 kts 283°
2026-04-30 13:11 65.42684 -33.43402 36286 ft 459 kts 283°
2026-04-30 13:11 65.43505 -33.50806 36402 ft 460 kts 283°
2026-04-30 13:12 65.44324 -33.58231 36510 ft 460 kts 283°
2026-04-30 13:12 65.45139 -33.65663 36611 ft 460 kts 283°
2026-04-30 13:12 65.45951 -33.73094 36712 ft 460 kts 283°
2026-04-30 13:13 65.47569 -33.88032 36884 ft 462 kts 283°
2026-04-30 13:13 65.48373 -33.95511 36983 ft 461 kts 283°
2026-04-30 13:13 65.49960 -34.10384 37181 ft 462 kts 283°
2026-04-30 13:14 65.50752 -34.17872 37262 ft 462 kts 283°
2026-04-30 13:14 65.53111 -34.40397 37537 ft 462 kts 283°
2026-04-30 13:15 65.55433 -34.62930 37758 ft 461 kts 283°
2026-04-30 13:16 65.56953 -34.77880 37803 ft 462 kts 283°
2026-04-30 13:16 65.58473 -34.93003 37792 ft 464 kts 282°
2026-04-30 13:17 65.60734 -35.15800 37786 ft 465 kts 282°
2026-04-30 13:18 65.62962 -35.38653 37786 ft 465 kts 282°
2026-04-30 13:18 65.65143 -35.61405 37786 ft 464 kts 282°
2026-04-30 13:19 65.66583 -35.76648 37788 ft 463 kts 282°
2026-04-30 13:19 65.68006 -35.91892 37792 ft 463 kts 282°
2026-04-30 13:20 65.69404 -36.07039 37785 ft 463 kts 281°
2026-04-30 13:20 65.70794 -36.22282 37790 ft 462 kts 281°
2026-04-30 13:21 65.72165 -36.37508 37784 ft 461 kts 281°
2026-04-30 13:22 65.74188 -36.60313 37781 ft 459 kts 281°
2026-04-30 13:22 65.76162 -36.82977 37784 ft 459 kts 281°
2026-04-30 13:23 65.78114 -37.05818 37792 ft 459 kts 280°
2026-04-30 13:24 65.80658 -37.36253 37795 ft 461 kts 280°
2026-04-30 13:25 65.83153 -37.66894 37823 ft 461 kts 280°
2026-04-30 13:26 65.86184 -38.05243 37825 ft 461 kts 279°
2026-04-30 13:28 65.89127 -38.43803 37887 ft 462 kts 279°
2026-04-30 13:28 65.90848 -38.67007 37935 ft 462 kts 279°
2026-04-30 13:29 65.93079 -38.97857 37956 ft 461 kts 278°
2026-04-30 13:31 65.95792 -39.36660 37989 ft 463 kts 278°
2026-04-30 13:32 65.98417 -39.75675 38015 ft 466 kts 278°
2026-04-30 13:33 66.00871 -40.06950 38030 ft 468 kts 287°
2026-04-30 13:34 66.03988 -40.29566 38024 ft 468 kts 287°
2026-04-30 13:35 66.08075 -40.59964 38029 ft 467 kts 286°
2026-04-30 13:36 66.12054 -40.90306 38029 ft 467 kts 286°
2026-04-30 13:36 66.15010 -41.13203 38024 ft 467 kts 286°
2026-04-30 13:37 66.17940 -41.36207 38021 ft 468 kts 285°
2026-04-30 13:38 66.20826 -41.59189 38021 ft 468 kts 285°
2026-04-30 13:39 66.24639 -41.90056 38008 ft 468 kts 285°
2026-04-30 13:40 66.27446 -42.13169 38015 ft 469 kts 285°
2026-04-30 13:40 66.29309 -42.28701 38013 ft 469 kts 285°
2026-04-30 13:41 66.31160 -42.44272 38000 ft 470 kts 285°
2026-04-30 13:41 66.32994 -42.59869 38000 ft 470 kts 284°
2026-04-30 13:42 66.34802 -42.75390 38001 ft 470 kts 284°
2026-04-30 13:42 66.37502 -42.98865 38034 ft 470 kts 284°
2026-04-30 13:43 66.39285 -43.14571 38016 ft 471 kts 284°
2026-04-30 13:43 66.41056 -43.30322 38009 ft 471 kts 284°
2026-04-30 13:44 66.42810 -43.46090 37995 ft 471 kts 284°
2026-04-30 13:44 66.44534 -43.61755 38010 ft 471 kts 284°
2026-04-30 13:45 66.47107 -43.85443 38032 ft 470 kts 284°
2026-04-30 13:46 66.48799 -44.01234 38047 ft 470 kts 283°
2026-04-30 13:46 66.50468 -44.16975 38043 ft 471 kts 283°
2026-04-30 13:47 66.52133 -44.32853 38040 ft 471 kts 283°
2026-04-30 13:47 66.53781 -44.48746 38043 ft 471 kts 283°
2026-04-30 13:48 66.55412 -44.64642 38042 ft 471 kts 283°
2026-04-30 13:48 66.57027 -44.80572 38043 ft 471 kts 283°
2026-04-30 13:49 66.58616 -44.96417 38063 ft 471 kts 283°
2026-04-30 13:49 66.60201 -45.12405 38048 ft 471 kts 283°
2026-04-30 13:50 66.61770 -45.28406 38035 ft 471 kts 282°
2026-04-30 13:50 66.64079 -45.52318 38030 ft 470 kts 282°
2026-04-30 13:51 66.65604 -45.68348 38029 ft 470 kts 282°
2026-04-30 13:51 66.67112 -45.84391 38025 ft 470 kts 282°
2026-04-30 13:52 66.68605 -46.00460 38015 ft 471 kts 282°
2026-04-30 13:52 66.70082 -46.16551 38013 ft 471 kts 282°
2026-04-30 13:53 66.71535 -46.32581 38020 ft 471 kts 282°
2026-04-30 13:53 66.72748 -46.46121 38016 ft 471 kts 282°
2026-04-30 13:54 66.74411 -46.64923 38013 ft 471 kts 281°
2026-04-30 13:54 66.75825 -46.81130 38018 ft 472 kts 281°
2026-04-30 13:55 66.77214 -46.97246 38032 ft 471 kts 281°
2026-04-30 13:55 66.78592 -47.13465 38029 ft 471 kts 281°
2026-04-30 13:56 66.79955 -47.29714 38018 ft 471 kts 281°
2026-04-30 13:56 66.81301 -47.45972 38065 ft 471 kts 281°
2026-04-30 13:57 66.82630 -47.62240 38055 ft 471 kts 281°
2026-04-30 13:57 66.83932 -47.78414 38102 ft 471 kts 281°
2026-04-30 13:58 66.85868 -48.02869 38109 ft 471 kts 280°
2026-04-30 13:59 66.87138 -48.19201 38114 ft 471 kts 280°
2026-04-30 13:59 66.88392 -48.35557 38118 ft 471 kts 280°
2026-04-30 14:00 66.89627 -48.51907 38105 ft 471 kts 280°
2026-04-30 14:00 66.91442 -48.76373 38076 ft 470 kts 279°
2026-04-30 14:01 66.92635 -48.92762 38087 ft 470 kts 279°
2026-04-30 14:01 66.93811 -49.09170 38062 ft 470 kts 279°
2026-04-30 14:02 66.94970 -49.25574 38060 ft 470 kts 279°
2026-04-30 14:02 66.96104 -49.41891 38024 ft 470 kts 279°
2026-04-30 14:03 66.97229 -49.58339 38021 ft 470 kts 279°
2026-04-30 14:03 66.98340 -49.74793 38017 ft 470 kts 279°
2026-04-30 14:04 66.99343 -49.91306 38007 ft 470 kts 274°
2026-04-30 14:04 66.99356 -50.07871 37999 ft 469 kts 266°
2026-04-30 14:05 66.98442 -50.24362 38004 ft 469 kts 261°
2026-04-30 14:05 66.97295 -50.40769 38003 ft 469 kts 260°
2026-04-30 14:06 66.95765 -50.62571 37967 ft 468 kts 261°
2026-04-30 14:07 66.93854 -50.89761 37977 ft 468 kts 260°
2026-04-30 14:08 66.92296 -51.11500 37974 ft 468 kts 260°
2026-04-30 14:08 66.90503 -51.35961 37996 ft 468 kts 260°
2026-04-30 14:09 66.89287 -51.52242 37979 ft 468 kts 259°
2026-04-30 14:10 66.87431 -51.76634 37984 ft 468 kts 259°
2026-04-30 14:10 66.86182 -51.92758 37990 ft 468 kts 259°
2026-04-30 14:11 66.84909 -52.08965 37992 ft 468 kts 259°
2026-04-30 14:11 66.83620 -52.25162 37988 ft 468 kts 259°
2026-04-30 14:12 66.82313 -52.41343 37982 ft 468 kts 259°
2026-04-30 14:12 66.80999 -52.57395 37991 ft 468 kts 259°
2026-04-30 14:13 66.79659 -52.73539 37994 ft 468 kts 258°
2026-04-30 14:13 66.78301 -52.89693 37976 ft 469 kts 258°
2026-04-30 14:14 66.76925 -53.05840 37988 ft 469 kts 258°
2026-04-30 14:14 66.75543 -53.21853 37987 ft 469 kts 258°
2026-04-30 14:15 66.74135 -53.37964 37995 ft 469 kts 258°
2026-04-30 14:15 66.72709 -53.54069 37991 ft 469 kts 258°
2026-04-30 14:16 66.71266 -53.70162 37969 ft 469 kts 257°
2026-04-30 14:16 66.69810 -53.86196 37982 ft 468 kts 257°
2026-04-30 14:17 66.68348 -54.02109 38015 ft 468 kts 257°
2026-04-30 14:17 66.66858 -54.18118 37998 ft 469 kts 257°
2026-04-30 14:18 66.65352 -54.34108 37991 ft 469 kts 257°
2026-04-30 14:18 66.63061 -54.58079 38001 ft 469 kts 257°
2026-04-30 14:19 66.60746 -54.81884 37977 ft 469 kts 256°
2026-04-30 14:20 66.59175 -54.97794 37994 ft 468 kts 256°
2026-04-30 14:20 66.56791 -55.21614 38010 ft 468 kts 256°
2026-04-30 14:21 66.55192 -55.37358 38025 ft 469 kts 256°
2026-04-30 14:22 66.52744 -55.61130 38017 ft 469 kts 256°
2026-04-30 14:22 66.50258 -55.84876 38017 ft 469 kts 256°
2026-04-30 14:23 66.46905 -56.16308 38020 ft 469 kts 255°
2026-04-30 14:24 66.44340 -56.39905 38022 ft 469 kts 255°
2026-04-30 14:25 66.40875 -56.71201 38047 ft 469 kts 255°
2026-04-30 14:26 66.38222 -56.94726 38041 ft 470 kts 254°
2026-04-30 14:27 66.35537 -57.18178 38034 ft 469 kts 254°
2026-04-30 14:27 66.33727 -57.33783 38043 ft 469 kts 254°
2026-04-30 14:28 66.30997 -57.57038 38046 ft 469 kts 254°
2026-04-30 14:28 66.29150 -57.72576 38050 ft 469 kts 253°
2026-04-30 14:29 66.25407 -58.03605 38061 ft 469 kts 253°
2026-04-30 14:31 66.20652 -58.42169 38064 ft 469 kts 253°
2026-04-30 14:31 66.17746 -58.65300 38059 ft 469 kts 253°
2026-04-30 14:32 66.14820 -58.88264 38065 ft 469 kts 252°
2026-04-30 14:33 66.12840 -59.03624 38064 ft 469 kts 252°
2026-04-30 14:33 66.09843 -59.26614 38092 ft 469 kts 252°
2026-04-30 14:34 66.07824 -59.41921 38069 ft 470 kts 252°
2026-04-30 14:34 66.05803 -59.57109 38068 ft 470 kts 252°
2026-04-30 14:35 66.02726 -59.80005 38077 ft 470 kts 252°
2026-04-30 14:36 66.00867 -59.95375 38072 ft 470 kts 258°
2026-04-30 14:36 65.99971 -60.11273 38074 ft 470 kts 265°
2026-04-30 14:37 65.99890 -60.27245 38080 ft 471 kts 269°
2026-04-30 14:37 65.99899 -60.43328 38095 ft 471 kts 269°
2026-04-30 14:38 65.99879 -60.59431 38080 ft 472 kts 268°
2026-04-30 14:38 65.99824 -60.75525 38075 ft 472 kts 268°
2026-04-30 14:39 65.99744 -60.91532 38077 ft 472 kts 268°
2026-04-30 14:39 65.99647 -61.07649 38072 ft 472 kts 268°
2026-04-30 14:40 65.99470 -61.31827 38075 ft 472 kts 268°
2026-04-30 14:40 65.99331 -61.47953 38081 ft 473 kts 267°
2026-04-30 14:41 65.99177 -61.63986 38081 ft 473 kts 267°
2026-04-30 14:41 65.99004 -61.80129 38076 ft 473 kts 267°
2026-04-30 14:42 65.98815 -61.96248 38075 ft 473 kts 267°
2026-04-30 14:42 65.98609 -62.12383 38069 ft 472 kts 267°
2026-04-30 14:43 65.98388 -62.28385 38068 ft 472 kts 266°
2026-04-30 14:43 65.98147 -62.44497 38072 ft 472 kts 266°
2026-04-30 14:44 65.97892 -62.60599 38063 ft 472 kts 266°
2026-04-30 14:44 65.97619 -62.76704 38062 ft 472 kts 266°
2026-04-30 14:45 65.97328 -62.92808 38064 ft 472 kts 266°
2026-04-30 14:45 65.97024 -63.08789 38069 ft 472 kts 266°
2026-04-30 14:46 65.96699 -63.24881 38069 ft 472 kts 266°
2026-04-30 14:46 65.96359 -63.40972 38085 ft 473 kts 265°
2026-04-30 14:47 65.96002 -63.57072 38083 ft 473 kts 265°
2026-04-30 14:47 65.95630 -63.73082 38069 ft 473 kts 265°
2026-04-30 14:48 65.95237 -63.89189 38056 ft 473 kts 265°
2026-04-30 14:48 65.94830 -64.05290 38062 ft 473 kts 265°
2026-04-30 14:49 65.94404 -64.21392 38069 ft 473 kts 265°
2026-04-30 14:49 65.93965 -64.37377 38082 ft 473 kts 265°
2026-04-30 14:50 65.93270 -64.61515 38061 ft 474 kts 264°
2026-04-30 14:51 65.92537 -64.85658 38064 ft 474 kts 264°
2026-04-30 14:52 65.91767 -65.09758 38074 ft 473 kts 264°
2026-04-30 14:52 65.90963 -65.33739 38106 ft 473 kts 264°
2026-04-30 14:53 65.90116 -65.57829 38075 ft 474 kts 264°
2026-04-30 14:54 65.88934 -65.89803 38089 ft 474 kts 263°
2026-04-30 14:55 65.88000 -66.13866 38089 ft 474 kts 263°
2026-04-30 14:56 65.86694 -66.45948 38095 ft 475 kts 263°
2026-04-30 14:57 65.85674 -66.69921 38088 ft 475 kts 263°
2026-04-30 14:58 65.84249 -67.01996 38093 ft 475 kts 262°
2026-04-30 14:58 65.83136 -67.26044 38082 ft 475 kts 262°
2026-04-30 15:00 65.81201 -67.65986 38095 ft 476 kts 262°
2026-04-30 15:01 65.79572 -67.98013 38101 ft 476 kts 261°
2026-04-30 15:01 65.78313 -68.21898 38101 ft 476 kts 261°
2026-04-30 15:02 65.77446 -68.37910 38107 ft 477 kts 261°
2026-04-30 15:03 65.75214 -68.77801 38095 ft 477 kts 261°
2026-04-30 15:04 65.72872 -69.17706 38090 ft 477 kts 260°
2026-04-30 15:06 65.70431 -69.57450 38092 ft 478 kts 260°
2026-04-30 15:07 65.68396 -69.89337 38089 ft 478 kts 260°
2026-04-30 15:08 65.66292 -70.21191 38111 ft 478 kts 259°
2026-04-30 15:09 65.63573 -70.60870 38085 ft 479 kts 259°
2026-04-30 15:10 65.61318 -70.92639 38091 ft 479 kts 259°
2026-04-30 15:11 65.57812 -71.40174 38099 ft 480 kts 258°
2026-04-30 15:13 65.54775 -71.79718 38097 ft 480 kts 258°
2026-04-30 15:14 65.50340 -72.35053 38085 ft 480 kts 258°
2026-04-30 15:17 65.44359 -73.05729 38101 ft 480 kts 257°
2026-04-30 15:19 65.38754 -73.68419 38086 ft 481 kts 256°
2026-04-30 17:39 56.85760 -110.66817 40109 ft 503 kts 235°
2026-04-30 17:42 56.63262 -111.15458 40101 ft 504 kts 234°
2026-04-30 17:43 56.51593 -111.39320 40091 ft 506 kts 233°
2026-04-30 17:44 56.37587 -111.67743 40108 ft 506 kts 233°
2026-04-30 17:47 56.16475 -112.09975 40115 ft 505 kts 232°
2026-04-30 17:48 55.99958 -112.42494 40110 ft 506 kts 232°
2026-04-30 17:50 55.80913 -112.79447 40103 ft 506 kts 231°
2026-04-30 17:52 55.66571 -113.06898 40111 ft 507 kts 231°
2026-04-30 17:54 55.44892 -113.47794 40109 ft 507 kts 230°
2026-04-30 17:56 55.25550 -113.83692 40131 ft 507 kts 230°
2026-04-30 17:58 55.10959 -114.10418 40150 ft 506 kts 230°
2026-04-30 18:00 54.91478 -114.45633 40144 ft 504 kts 229°
2026-04-30 18:01 54.79286 -114.67408 40132 ft 505 kts 229°
2026-04-30 18:02 54.64574 -114.93420 40132 ft 505 kts 229°
2026-04-30 18:04 54.49791 -115.19270 40139 ft 504 kts 228°
2026-04-30 18:06 54.30092 -115.53284 40152 ft 503 kts 228°
2026-04-30 18:08 54.11944 -115.81201 40180 ft 508 kts 211°
2026-04-30 18:10 53.85620 -115.99047 40168 ft 511 kts 203°
2026-04-30 18:11 53.62447 -116.14361 40189 ft 511 kts 203°
2026-04-30 18:13 53.45891 -116.25182 40173 ft 513 kts 202°
2026-04-30 18:14 53.29282 -116.35948 40199 ft 514 kts 202°
2026-04-30 18:15 53.09227 -116.48828 40202 ft 514 kts 202°
2026-04-30 18:16 52.95921 -116.57302 40212 ft 513 kts 202°
2026-04-30 18:17 52.89252 -116.61529 40226 ft 513 kts 202°
2026-04-30 18:18 52.79264 -116.67833 40213 ft 512 kts 202°
2026-04-30 18:18 52.72616 -116.72011 40241 ft 511 kts 202°
2026-04-30 18:19 52.66023 -116.76143 40250 ft 511 kts 202°
2026-04-30 18:19 52.59373 -116.80296 40279 ft 511 kts 202°
2026-04-30 18:20 52.52721 -116.84435 40277 ft 512 kts 202°
2026-04-30 18:20 52.46061 -116.88568 40305 ft 511 kts 202°
2026-04-30 18:21 52.39447 -116.92659 40314 ft 511 kts 202°
2026-04-30 18:21 52.32787 -116.96763 40338 ft 511 kts 202°
2026-04-30 18:22 52.26123 -117.00859 40334 ft 512 kts 202°
2026-04-30 18:22 52.16125 -117.06980 40330 ft 511 kts 202°
2026-04-30 18:23 52.09511 -117.11011 40355 ft 511 kts 201°
2026-04-30 18:23 52.02849 -117.15057 40346 ft 511 kts 201°
2026-04-30 18:24 51.92852 -117.21110 40338 ft 512 kts 201°
2026-04-30 18:25 51.86178 -117.25135 40345 ft 512 kts 201°
2026-04-30 18:25 51.76220 -117.31162 40327 ft 510 kts 205°
2026-04-30 18:26 51.70309 -117.37304 40334 ft 505 kts 224°
2026-04-30 18:26 51.67858 -117.41341 40327 ft 503 kts 234°
2026-04-30 18:27 51.61700 -117.54938 40312 ft 501 kts 237°
2026-04-30 18:28 51.55574 -117.68451 40317 ft 501 kts 236°
2026-04-30 18:28 51.49339 -117.81914 40319 ft 501 kts 236°
2026-04-30 18:29 51.40984 -117.99817 40322 ft 501 kts 235°
2026-04-30 18:30 51.32663 -118.17551 40315 ft 499 kts 235°
2026-04-30 18:31 51.26406 -118.30801 40290 ft 497 kts 235°
2026-04-30 18:32 51.20155 -118.43971 40284 ft 495 kts 235°
2026-04-30 18:33 51.13931 -118.57020 40289 ft 496 kts 235°
2026-04-30 18:33 51.07651 -118.70120 40274 ft 496 kts 235°
2026-04-30 18:34 51.01357 -118.83182 40280 ft 496 kts 234°
2026-04-30 18:35 50.97189 -118.91800 40279 ft 496 kts 234°
2026-04-30 18:35 50.92964 -119.00503 40271 ft 496 kts 234°
2026-04-30 18:36 50.87353 -119.12014 40259 ft 496 kts 234°
2026-04-30 18:37 50.80335 -119.26342 40257 ft 495 kts 234°
2026-04-30 18:37 50.76821 -119.33487 40249 ft 495 kts 234°
2026-04-30 18:38 50.72592 -119.42057 40260 ft 494 kts 234°
2026-04-30 18:38 50.67684 -119.51977 40264 ft 494 kts 234°
2026-04-30 18:39 50.63451 -119.60498 40258 ft 493 kts 234°
2026-04-30 18:39 50.59903 -119.67617 40237 ft 494 kts 234°
2026-04-30 18:40 50.55686 -119.76056 40251 ft 493 kts 234°
2026-04-30 18:40 50.51444 -119.84515 40257 ft 493 kts 234°
2026-04-30 18:41 50.47190 -119.92973 40252 ft 493 kts 234°
2026-04-30 18:41 50.42928 -120.01417 40243 ft 493 kts 233°
2026-04-30 18:42 50.38676 -120.09817 40249 ft 492 kts 233°
2026-04-30 18:42 50.32318 -120.22325 40250 ft 491 kts 233°
2026-04-30 18:45 50.08971 -120.67751 40236 ft 485 kts 233°
2026-04-30 18:45 50.06869 -120.71803 40093 ft 476 kts 233°
2026-04-30 18:46 50.04802 -120.75777 39490 ft 471 kts 233°
2026-04-30 18:46 50.02736 -120.79750 38493 ft 474 kts 233°
2026-04-30 18:46 50.00667 -120.83726 37127 ft 484 kts 233°
2026-04-30 18:46 49.98536 -120.87815 36137 ft 489 kts 232°
2026-04-30 18:47 49.96376 -120.91948 35282 ft 496 kts 232°
2026-04-30 18:47 49.94235 -120.96172 34522 ft 500 kts 235°
2026-04-30 18:47 49.92325 -121.00704 33739 ft 502 kts 241°
2026-04-30 18:47 49.90577 -121.05380 32954 ft 500 kts 241°
2026-04-30 18:48 49.88844 -121.10023 32180 ft 496 kts 241°
2026-04-30 18:48 49.87116 -121.14628 31421 ft 492 kts 240°
2026-04-30 18:48 49.85389 -121.19185 30689 ft 488 kts 239°
2026-04-30 18:48 49.83692 -121.23635 29918 ft 486 kts 239°
2026-04-30 18:49 49.81974 -121.28117 29085 ft 482 kts 239°
2026-04-30 18:49 49.80270 -121.32546 28275 ft 475 kts 239°
2026-04-30 18:49 49.78587 -121.36911 27480 ft 469 kts 238°
2026-04-30 18:49 49.76925 -121.41217 26713 ft 463 kts 238°
2026-04-30 18:50 49.75283 -121.45463 25962 ft 457 kts 238°
2026-04-30 18:50 49.73657 -121.49666 25245 ft 452 kts 238°
2026-04-30 18:50 49.72051 -121.53809 24517 ft 447 kts 238°
2026-04-30 18:50 49.70460 -121.57904 23833 ft 443 kts 238°
2026-04-30 18:51 49.68881 -121.61963 23016 ft 439 kts 237°
2026-04-30 18:51 49.67342 -121.65923 22239 ft 434 kts 237°
2026-04-30 18:51 49.65800 -121.69880 21438 ft 421 kts 237°
2026-04-30 18:51 49.64326 -121.73666 20685 ft 404 kts 236°
2026-04-30 18:52 49.62881 -121.77357 19949 ft 403 kts 236°
2026-04-30 18:52 49.61430 -121.81055 19234 ft 404 kts 236°
2026-04-30 18:52 49.59979 -121.84747 18544 ft 401 kts 236°
2026-04-30 18:52 49.58546 -121.88396 17740 ft 396 kts 236°
2026-04-30 18:53 49.57127 -121.92006 16965 ft 390 kts 236°
2026-04-30 18:53 49.55749 -121.95509 16209 ft 386 kts 236°
2026-04-30 18:53 49.54364 -121.99021 15478 ft 381 kts 236°
2026-04-30 18:53 49.52992 -122.02491 14765 ft 378 kts 236°
2026-04-30 18:54 49.51636 -122.05916 14072 ft 371 kts 236°
2026-04-30 18:54 49.50316 -122.09235 13259 ft 356 kts 237°
2026-04-30 18:54 49.49047 -122.12423 12471 ft 343 kts 237°
2026-04-30 18:54 49.47822 -122.15499 11711 ft 331 kts 237°
2026-04-30 18:55 49.46636 -122.18470 10968 ft 322 kts 237°
2026-04-30 18:55 49.44381 -122.24157 10196 ft 302 kts 237°
2026-04-30 18:55 49.43321 -122.26834 10000 ft 293 kts 237°
2026-04-30 18:56 49.41266 -122.32020 9978 ft 281 kts 237°
2026-04-30 18:56 49.40286 -122.34597 9956 ft 278 kts 245°
2026-04-30 18:56 49.39863 -122.37497 10000 ft 282 kts 263°
2026-04-30 18:57 49.39466 -122.43630 9956 ft 287 kts 262°
2026-04-30 18:57 49.39242 -122.46653 9966 ft 284 kts 262°
2026-04-30 18:57 49.39012 -122.49662 9965 ft 284 kts 262°
2026-04-30 18:58 49.38547 -122.55629 9987 ft 284 kts 261°
2026-04-30 18:58 49.38311 -122.58651 9845 ft 287 kts 261°
2026-04-30 18:58 49.38071 -122.61703 9570 ft 288 kts 261°
2026-04-30 18:59 49.37597 -122.67743 9037 ft 281 kts 261°
2026-04-30 19:00 49.36847 -122.77153 8248 ft 279 kts 261°
2026-04-30 19:00 49.36610 -122.80110 7994 ft 279 kts 262°
2026-04-30 19:00 49.36083 -122.85996 7484 ft 270 kts 252°
2026-04-30 19:01 49.33701 -122.89859 6769 ft 249 kts 200°
2026-04-30 19:01 49.32040 -122.90438 6505 ft 239 kts 184°
2026-04-30 19:02 49.28786 -122.90318 5974 ft 232 kts 165°
2026-04-30 19:02 49.26537 -122.86971 5509 ft 237 kts 112°
2026-04-30 19:03 49.25628 -122.81995 5006 ft 242 kts 106°
2026-04-30 19:03 49.24781 -122.77095 4700 ft 229 kts 110°
2026-04-30 19:04 49.22437 -122.74286 4442 ft 231 kts 177°
2026-04-30 19:04 49.19232 -122.74658 4225 ft 228 kts 185°
2026-04-30 19:05 49.16358 -122.75840 4064 ft 212 kts 220°
2026-04-30 19:05 49.15238 -122.79922 3999 ft 212 kts 255°
2026-04-30 19:06 49.14893 -122.84342 3994 ft 211 kts 278°
2026-04-30 19:06 49.15131 -122.86594 3842 ft 220 kts 278°
2026-04-30 19:06 49.15642 -122.91204 3265 ft 219 kts 280°
2026-04-30 19:07 49.16138 -122.95548 2718 ft 196 kts 280°
2026-04-30 19:07 49.16361 -122.97508 2477 ft 179 kts 280°
2026-04-30 19:08 49.16749 -123.00916 2053 ft 150 kts 279°
2026-04-30 19:08 49.17108 -123.04006 1658 ft 148 kts 279°
2026-04-30 19:08 49.17278 -123.05560 1448 ft 147 kts 279°
2026-04-30 19:09 49.17562 -123.08069 1116 ft 142 kts 279°
2026-04-30 19:09 49.17730 -123.09550 940 ft 141 kts 279°
2026-04-30 19:09 49.17946 -123.11491 672 ft 137 kts 279°
2026-04-30 19:10 49.18273 -123.14324 274 ft 131 kts 279°
2026-04-30 19:10 49.18535 -123.16629 30 ft 131 kts 278°
2026-04-30 19:11 49.18670 -123.17822 29 ft 93 kts 279°
2026-04-30 19:11 49.18811 -123.19066 27 ft 36 kts 280°
2026-04-30 19:11 49.18848 -123.19385 29 ft 28 kts 280°
2026-04-30 19:12 49.18938 -123.19631 26 ft 20 kts 307°
2026-04-30 19:12 49.18975 -123.19703 27 ft 0 kts 308°
2026-04-30 19:12 49.18989 -123.19730 27 ft 12 kts 309°
2026-04-30 19:13 49.19191 -123.19801 27 ft 17 kts 34°
2026-04-30 19:13 49.19278 -123.19661 27 ft 7 kts 78°
2026-04-30 19:13 49.19288 -123.19581 27 ft 8 kts 79°
2026-04-30 19:14 49.19299 -123.19493 27 ft 9 kts 78°
2026-04-30 19:14 49.19312 -123.19390 30 ft 11 kts 80°
2026-04-30 19:14 49.19326 -123.19269 29 ft 12 kts 80°
2026-04-30 19:14 49.19341 -123.19147 27 ft 12 kts 80°
2026-04-30 19:15 49.19355 -123.19025 27 ft 12 kts 79°
2026-04-30 19:15 49.19388 -123.18782 27 ft 12 kts 67°
2026-04-30 19:15 49.19457 -123.18729 27 ft 12 kts 10°
2026-04-30 19:16 49.19538 -123.18707 27 ft 12 kts 10°
2026-04-30 19:16 49.19619 -123.18685 27 ft 12 kts 10°
2026-04-30 19:16 49.19765 -123.18587 27 ft 12 kts 54°
2026-04-30 19:17 49.19768 -123.18458 27 ft 13 kts 99°
2026-04-30 19:17 49.19744 -123.18260 27 ft 9 kts 101°
2026-04-30 19:17 49.19722 -123.18173 27 ft 9 kts 120°
2026-04-30 19:18 49.19695 -123.18050 27 ft 8 kts 50°
2026-04-30 19:18 49.19720 -123.18017 27 ft 4 kts 38°
2026-04-30 19:18 49.19729 -123.18006 26 ft 0 kts 38°